Location: Unspecified
(47.6579°N, 23.5637°E)
Time: 02:54:55
(UTC+02:00)

Envisat - Pass Details

Date: 03 December 2021
Orbit: 764 x 766 km, 98.2° (Epoch: 17 January)

Event Time Altitude Azimuth Distance (km) Brightness Sun altitude
Rises 04:48:21 0° 21° (NNE) 3,244 6.5 -30.7°
Reaches altitude 10° 04:50:52 10° 30° (NNE) 2,313 5.8 -30.2°
Maximum altitude 04:55:31 35° 96° (E) 1,225 4.5 -29.4°
Drops below altitude 10° 05:00:08 10° 162° (SSE) 2,296 5.7 -28.7°
Sets 05:02:37 0° 171° (S) 3,216 6.4 -28.3°
